This demonstration page uses our WeatherBlox Daily Observations layout. Learn more.

Left ArrowRight Arrow

39.92423, -83.80882

Hourly Observations for May 18, 2020

Temp ( °F °C ) Dew Point ( °F °C ) Humidity (%) Winds ( mph kmh ) Pressure ( in mb ) Visibility ( mi km ) Precip ( " mm )
12:56 am 00:56 Mostly Clear 66 18.9 66 18.9 100 100 ESE 5 7 29.8 1009 10 16.0934 0.001 0.001
1:56 am 01:56 Cloudy 68 20 65 18.3 90 90 S 5 7 29.79 1009 10 16.0934 0 0
2:56 am 02:56 Cloudy with Light Rain 68 20 65 18.3 90 90 S 5 7 29.78 1009 10 16.0934 0 0
3:56 am 03:56 Mostly Cloudy 66 18.9 65 18.3 96 96 SE 9 15 29.77 1008 10 16.0934 0 0
4:56 am 04:56 Cloudy with Light Rain 67 19.4 66 18.9 97 97 SSE 14 22 29.77 1008 10 16.0934 0 0
5:56 am 05:56 Cloudy 66 18.9 65 18.3 96 96 S 8 13 29.78 1008 10 16.0934 0 0
6:56 am 06:56 Cloudy 66 18.9 65 18.3 96 96 SSE 8 13 29.78 1009 10 16.0934 0 0
7:56 am 07:56 Cloudy 67 19.4 65 18.3 93 93 SSE 9 15 29.78 1008 10 16.0934 0 0
8:56 am 08:56 Cloudy 68 20 65 18.3 90 90 SSE 10 17 29.78 1009 10 16.0934 0 0
9:56 am 09:56 Cloudy 69 20.6 65 18.3 87 87 SSE 13 20 29.78 1009 10 16.0934 0 0
10:19 am 10:19 Cloudy 70 21 64 18 83 83 SSE 12 19 29.77 1008 10 16.0934 0 0
10:32 am 10:32 Mostly Cloudy 70 21 64 18 83 83 SSE 14 22 29.76 1008 10 16.0934 0 0
10:56 am 10:56 Mostly Cloudy 70 21.1 65 18.3 84 84 SSE 14 22 29.79 1009 10 16.0934 0 0
11:56 am 11:56 Cloudy 71 21.7 66 18.9 84 84 S 9 15 29.79 1009 10 16.0934 0 0
12:56 pm 12:56 Cloudy with Light Rain 71 21.7 66 18.9 84 84 SSE 12 19 29.78 1009 10 16.0934 0 0
1:43 pm 13:43 Cloudy with Heavy Rain 66 19 66 19 100 100 WSW 7 11 29.77 1008 1.75 2.816345 0 0
1:48 pm 13:48 Cloudy with Thunderstorms 66 19 66 19 100 100 SW 8 13 29.78 1008 2 3.21868 0 0
1:56 pm 13:56 Cloudy with Heavy Thunderstorms 66 18.9 66 18.9 100 100 VRB 5 7 29.79 1009 4 6.43736 0 0
2:10 pm 14:10 Cloudy with Nearby Thunderstorms 66 19 66 19 100 100 SE 5 7 29.78 1008 4 6.43736 0 0
2:18 pm 14:18 Cloudy with Light Rain 66 19 66 19 100 100 S 7 11 29.78 1008 8 12.87472 0 0
2:25 pm 14:25 Cloudy with Light Rain 66 19 66 19 100 100 SSE 8 13 29.77 1008 10 16.0934 0 0
2:56 pm 14:56 Mostly Cloudy with Light Rain 67 19.4 67 19.4 100 100 SSE 8 13 29.78 1008 10 16.0934 0 0
3:56 pm 15:56 Mostly Cloudy with Light Rain 69 20.6 69 20.6 100 100 ESE 5 7 29.75 1008 10 16.0934 0 0
4:36 pm 16:36 Cloudy with Light Rain 70 21 70 21 100 100 SSW 3 6 29.74 1007 10 16.0934 0 0
4:56 pm 16:56 Cloudy with Light Rain 68 20 68 20 100 100 W 9 15 29.77 1008 10 16.0934 0 0
5:05 pm 17:05 Cloudy with Light Rain 66 19 66 19 100 100 WNW 12 19 29.76 1008 10 16.0934 0 0
5:26 pm 17:26 Cloudy with Light Rain 66 19 66 19 100 100 WNW 14 22 29.77 1008 10 16.0934 0 0
5:38 pm 17:38 Cloudy with Light Rain 63 17 63 17 100 100 NW 16 26 29.78 1009 10 16.0934 0 0
5:42 pm 17:42 Cloudy with Nearby Thunderstorms 63 17 63 17 100 100 NW 14 22 29.78 1009 10 16.0934 0 0
5:49 pm 17:49 Cloudy with Nearby Thunderstorms 61 16 61 16 100 100 N 12 19 29.78 1008 10 16.0934 0 0
5:56 pm 17:56 Cloudy with Nearby Thunderstorms 61 16.1 61 16.1 100 100 NNE 13 20 29.78 1008 9 14.48406 0 0
6:01 pm 18:01 Cloudy with Nearby Thunderstorms 61 16 61 16 100 100 NNE 12 19 29.77 1008 7 11.26538 0 0
6:03 pm 18:03 Cloudy with Rain 61 16 61 16 100 100 NNE 10 17 29.77 1008 6 9.65604 0 0
6:34 pm 18:34 Cloudy with Heavy Rain 63 17 63 17 100 100 VRB 6 9 29.77 1008 6 9.65604 0 0
6:43 pm 18:43 Cloudy with Rain 63 17 63 17 100 100 Calm 29.77 1008 3 4.82802 0 0
6:56 pm 18:56 Cloudy with Rain 63 17.2 63 17.2 100 100 S 6 9 29.77 1008 7 11.26538 0 0
7:05 pm 19:05 Cloudy with Rain 63 17 63 17 100 100 S 7 11 29.76 1008 10 16.0934 0 0
7:56 pm 19:56 Cloudy with Light Rain 63 17.2 63 17.2 100 100 Calm 29.77 1008 10 16.0934 0 0
8:56 pm 20:56 Cloudy with Light Rain 62 16.7 62 16.7 100 100 Calm 29.82 1010 9 14.48406 0 0
9:32 pm 21:32 Cloudy with Light Rain 63 17 63 17 100 100 Calm 29.8 1009 10 16.0934 0 0
9:51 pm 21:51 Cloudy with Rain 63 17 63 17 100 100 Calm 29.81 1010 5 8.0467 0 0
9:56 pm 21:56 Cloudy with Rain 62 16.7 62 16.7 100 100 Calm 29.82 1010 5 8.0467 0 0
10:24 pm 22:24 Cloudy with Light Rain 63 17 63 17 100 100 ENE 3 6 29.8 1009 9 14.48406 0 0
10:39 pm 22:39 Cloudy with Light Rain 63 17 63 17 100 100 NE 9 15 29.78 1009 10 16.0934 0 0
10:56 pm 22:56 Cloudy with Light Rain 62 16.7 62 16.7 100 100 ENE 8 13 29.79 1009 10 16.0934 0 0
11:48 pm 23:48 Cloudy with Light Rain 63 17 63 17 100 100 E 10 17 29.78 1009 10 16.0934 0 0
11:56 pm 23:56 Cloudy with Light Rain 61 16.1 61 16.1 100 100 E 10 17 29.78 1009 10 16.0934 0 0

Powered by AerisWeather